Regional Weather Roundup
Issued by NWS

Home | Current Version | Previous Version | Graphics & Text | Print | Product List | Glossary On
Versions: 1 2 3 4 5 6 7 8 9 10 11 12 13 14 15 16 17 18 19 20 21 22 23 24 25 26 27 28 29 30 31 32 33 34 35 36 37 38 39 40 41 42 43 44 45 46 47 48 49 50
000
ASUS43 KOAX 301102
RWRNE

WEATHER ROUNDUP FOR NEBRASKA
NATIONAL WEATHER SERVICE OMAHA NE
600 AM CDT SAT AUG 30 2014

NOTES: SATELLITE DATA IS BEING USED TO AUGMENT CLOUD COVER ABOVE
       12000 FEET.
       "FAIR" INDICATES FEW OR NO CLOUDS BELOW 12,000 FEET WITH NO
       SIGNIFICANT WEATHER AND/OR OBSTRUCTIONS TO VISIBILITY.

  * THESE STATIONS DO NOT REPORT WEATHER SUCH AS RAIN...SNOW OR FOG.

NEZ001>004-019>022-054>056-301200-
NEBRASKA PANHANDLE

CITY           SKY/WX    TMP DP  RH WIND       PRES   REMARKS
SCOTTSBLUFF    CLEAR     54  53  97 E7        30.02F
ALLIANCE       CLEAR     52  50  93 S3        30.02F
CHADRON        CLEAR     52  50  93 CALM      29.96F
KIMBALL        CLEAR     51  50  95 S5        30.06S
SIDNEY         CLEAR     54  51  90 S7        30.06F
$$

NEZ057>060-069>072-079>082-301200-
SOUTHWEST NEBRASKA

CITY           SKY/WX    TMP DP  RH WIND       PRES   REMARKS
NORTH PLATTE   PTCLDY    54  53  97 CALM      30.02S
IMPERIAL       PTCLDY    58  55  90 CALM      30.03F
LEXINGTON      CLEAR     57  56  95 NW3       30.00S
MCCOOK         CLEAR     59  57  93 CALM      30.00F
OGALLALA       PTCLDY    55  54  97 CALM      30.03S
$$

NEZ005>010-023>029-035>040-094-301200-
NORTH CENTRAL NEBRASKA

CITY           SKY/WX    TMP DP  RH WIND       PRES   REMARKS
VALENTINE      CLEAR     53  52  96 CALM      29.99F
AINSWORTH      CLEAR     55  54  97 CALM      29.99F
BROKEN BOW     CLEAR     56  54  93 CALM      30.00S
O`NEILL        CLOUDY    60  60  99 N5        29.98S
ORD            CLEAR     57  55  93 NW5       29.97S
THEDFORD       CLEAR     52  51  97 CALM      30.02S
$$

NEZ041-046>049-061>064-073>077-083>087-301200-
SOUTH CENTRAL NEBRASKA

CITY           SKY/WX    TMP DP  RH WIND       PRES   REMARKS
GRAND ISLAND   CLEAR     60  57  89 NW3       29.98R
AURORA         CLEAR     59  59 100 NW3       29.97R
HASTINGS       CLEAR     61  56  83 N5        29.97R
HEBRON         CLEAR     61  58  89 CALM      29.95R
HOLDREGE       CLEAR     59  56  92 CALM      30.00R
KEARNEY *      CLEAR     59  55  88 NW5       29.99S
$$

NEZ011>018-030>034-042>045-301200-
NORTHEAST NEBRASKA

CITY           SKY/WX    TMP DP  RH WIND       PRES   REMARKS
NORFOLK        CLOUDY    62  60  93 NW10      29.94R
ALBION         CLEAR     58  56  93 CALM      29.97R
BLAIR          CLEAR     64  62  93 W6        29.90R
FREMONT        CLEAR     64  61  93 W6        29.91S
TEKAMAH        CLEAR     64  62  93 NW6       29.89R
WAYNE          CLOUDY    64  63  96 NW8       29.92S
$$

NEZ050>053-065>068-078-088>093-301200-
SOUTHEAST NEBRASKA

CITY           SKY/WX    TMP DP  RH WIND       PRES   REMARKS
LINCOLN        CLEAR     65  60  84 NW6       29.93R
OMAHA EPPLEY   CLEAR     63  61  93 NW6       29.89R
BEATRICE       CLEAR     61  61 100 CALM      29.93R FOG
FALLS CITY     CLEAR     66  65  96 W6        29.89R
NEBRASKA CITY  CLEAR     64  64 100 W6        29.90R
PLATTSMOUTH    CLEAR     64  63  94 CALM      29.90R
$$

NEZ044-045-051>053-067-301200-
OMAHA AREA

CITY           SKY/WX    TMP DP  RH WIND       PRES   REMARKS
OMAHA EPPLEY   CLEAR     63  61  93 NW6       29.89R
BLAIR          CLEAR     64  62  93 W6        29.90R
FREMONT        CLEAR     64  61  93 W6        29.91S
MILLARD        CLEAR     65  64  93 NW3       29.90R
OFFUTT AFB     CLEAR     64  64 100 NW2       29.90R
PLATTSMOUTH    CLEAR     64  63  94 CALM      29.90R
WAHOO          FAIR      64  61  88 NW5       29.92R
$$



USA.gov is the U.S. government's official web portal to all federal, state and local government web resources and services.